Regional Weather Roundup
Issued by NWS

Home | Current Version | Previous Version | Text Only | Print | Product List | Glossary On
Versions: 1 2 3 4 5 6 7 8 9 10 11 12 13 14 15 16 17 18 19 20 21 22 23 24 25 26 27 28 29 30 31 32 33 34 35 36 37 38 39 40 41 42 43 44 45 46 47 48 49 50
000
ASUS44 KFWD 241615
RWRTX
NORTH TEXAS HOURLY WEATHER ROUNDUP
NATIONAL WEATHER SERVICE FORT WORTH TX
1000 AM CST MON NOV 24 2014

NOTE: "FAIR" INDICATES FEW OR NO CLOUDS BELOW 12,000 FEET WITH NO
SIGNIFICANT WEATHER AND/OR OBSTRUCTIONS TO VISIBILITY.

TXZ118-119-241700-
DALLAS/FORT WORTH METROPLEX

CITY           SKY/WX    TMP DP  RH WIND       PRES   REMARKS
DFW AIRPORT    PTSUNNY   50  29  44 NW9       30.07R
DALLAS LOVE    MOSUNNY   50  31  48 NW7       30.07R
FTW MEACHAM    SUNNY     51  28  41 NW9       30.08R
DAL-EXECUTIVE  MOSUNNY   52  31  44 NW9       30.06R
FTW-ALLIANCE   MOSUNNY   48  28  46 NW8       30.07R
FTW-SPINKS     SUNNY     52  28  40 NW8       30.10R
ARLINGTON      MOSUNNY   51  28  41 W9        30.08R
GRAND PRAIRIE  SUNNY     50  32  50 NW7       30.09R
ADDISON        MOSUNNY   48  32  53 NW6       30.07R
MESQUITE       SUNNY     52  32  46 CALM      30.08R
LANCASTER      MOSUNNY   52  32  46 NW6       30.08R
$$

TXZ091>094-102>105-117-120-121-131>134-241700-
NORTH CENTRAL TEXAS

CITY           SKY/WX    TMP DP  RH WIND       PRES   REMARKS
SHRMAN/DENISON SUNNY     49  34  54 NW10      30.05R
GAINESVILLE    SUNNY     49  27  41 NW9       30.07R
BOWIE          SUNNY     48  28  46 W8        30.06R
BRIDGEPORT     SUNNY     48  32  53 NW9       30.09R
DECATUR        SUNNY     48  29  48 NW8       30.06R
DENTON         SUNNY     48  30  49 NW8       30.06R
MCKINNEY       MOSUNNY   50  31  48 NW10      30.06R
GREENVILLE     MOSUNNY   50  34  53 W5        30.07R
ROCKWALL       MOSUNNY   50  34  54 NW7       30.05R
TERRELL        MOSUNNY   55  32  41 VRB6      30.07R
WAXAHACHIE     MOSUNNY   51  34  51 NW7       30.09R
CLEBURNE       MOSUNNY   48  30  49 NW9       30.10R
GRANBURY       MOSUNNY   51  31  46 NW6       30.11R
$$

TXZ083>090-098>101-113>116-127>130-139>142-154-155-241700-
WESTERN NORTH TEXAS

CITY           SKY/WX    TMP DP  RH WIND       PRES   REMARKS
WICHITA FALLS  MOSUNNY   47  29  49 NW7       30.06R
WF-KICKAPOO    SUNNY     47  26  43 W5        30.08R
VERNON         MOSUNNY   48  30  49 W7        30.08R
ABILENE        SUNNY     45  30  55 CALM      30.10S
ABILENE-DYESS  SUNNY     47  27  44 NW3       30.09R
BRECKENRIDGE   SUNNY     50  28  43 NW3       30.09S
GRAHAM         SUNNY     49  32  52 CALM      30.08R
MINERAL WELLS  MOSUNNY   47  30  51 NW8       30.07R
STEPHENVILLE   MOSUNNY   50  27  41 NW6       30.11R
COMANCHE       MOSUNNY   48  31  51 N7        30.10R
BROWNWOOD      MOSUNNY   48  32  53 NW3       30.11S
COLEMAN        MOSUNNY   49  30  47 NW3       30.11R
BRADY          SUNNY     46  30  53 NW9       30.11R
$$

TXZ143>147-156>162-174-175-241700-
CENTRAL TEXAS

CITY           SKY/WX    TMP DP  RH WIND       PRES   REMARKS
WACO           PTSUNNY   50  34  54 N10       30.10R
WACO-TSTC      SUNNY     52  36  54 NW7       30.10R
WACO-MCGREGOR  PTSUNNY   50  34  53 N10       30.11R
HILLSBORO      MOSUNNY   50  35  57 NW7       30.09R
CORSICANA      MOSUNNY   54  34  46 NW9       30.08R
MEXIA          MOSUNNY   53  36  53 NW9       30.07R
HEARNE         SUNNY     53  39  57 NW5       30.10R
CAMERON        SUNNY     55  39  55 N8        30.10R
TEMPLE         PTSUNNY   55  32  41 N9        30.09R
KILLEEN        PTSUNNY   53  28  38 N15       30.10R
KILLEEN-SKYLRK PTSUNNY   55  30  38 NW8       30.06S
FORT HOOD      PTSUNNY   57  30  35 NW10      30.09R
GATESVILLE     PTSUNNY   50  32  50 N8        30.13R
HAMILTON       PTSUNNY   49  30  48 N8        30.11R
LAMPASAS       PTSUNNY   51  33  50 NW8       30.09R
$$

TXZ095>097-106>112-122>126-135>138-148>153-164>167-241700-
EAST TEXAS

CITY           SKY/WX    TMP DP  RH WIND       PRES   REMARKS
PARIS          SUNNY     52  30  43 W7        30.03R
SULPHUR SPRNGS SUNNY     53  32  45 NW3       30.07R
MOUNT PLEASANT SUNNY     52  32  46 NW7       30.06R
MINEOLA        SUNNY     52  30  43 NW8       30.07R
TYLER          SUNNY     54  33  45 N8        30.05R
LONGVIEW       SUNNY     55  36  48 NW10      30.03R
MARSHALL       SUNNY     55  38  52 NW6       30.06R
ATHENS         SUNNY     52  32  46 N6        30.06R
PALESTINE      SUNNY     54  39  57 NW6       30.08R
JACKSONVILLE   SUNNY     53  36  51 NW7       30.07R
HENDERSON      SUNNY     54  35  47 NW7       30.06R
NACOGDOCHES    SUNNY     55  36  47 N9        30.06R
LUFKIN         SUNNY     58  35  42 NW10G22   30.06R
$$

SUPPLEMENTAL OBSERVATIONS (CENTRAL)

CITY           SKY/WX    TMP DP  RH WIND       PRES   REMARKS
LAKE TEXOMA      N/A     48  32  53 W10         N/A
PAT MAYSE LAKE   N/A     52  28  40 NW8         N/A
ATHENS           N/A     57  32  38 N2          N/A
PALESTINE        N/A     57  36  44 NW6         N/A
LAKE LIMESTONE   N/A     57  34  41 N7          N/A
MCGREGOR         N/A     52  32  46 N9G17       N/A
TEMPLE           N/A     55  32  41 NW2         N/A
$$

SUPPLEMENTAL OBSERVATIONS (WEST)

CITY           SKY/WX    TMP DP  RH WIND       PRES   REMARKS
MILLERS CREEK    N/A     48  39  71 NW7         N/A
POSSUM KINGDOM   N/A     48  30  49 NW6         N/A
GRANBURY         N/A     52  32  46 NW8         N/A
COMANCHE         N/A     50  34  53 N7          N/A
HAMBY            N/A     46  32  57 SW3         N/A
IVIE RESERVOIR   N/A     48  34  57 SW6         N/A
COLORADO BEND    N/A     52  32  46 NW8         N/A
$$

SUPPLEMENTAL OBSERVATIONS (EAST)

CITY           SKY/WX    TMP DP  RH WIND       PRES   REMARKS
CLARKSVILLE      N/A     55  32  41 W3          N/A
TEXARKANA        N/A     55  32  41 NW7         N/A
LINDEN           N/A     55  34  44 N6          N/A
CADDO LAKE       N/A     57  36  44 NW5         N/A
GILMER           N/A     55  32  41 N7          N/A
HENDERSON        N/A     55  34  44 NW10        N/A
LUFKIN           N/A     55  36  47 MISG        N/A
N SABINE NF      N/A     54  37  54 MISG        N/A
S SABINE NF      N/A     55  37  50 N5          N/A
$$

SUPPLEMENTAL OBSERVATIONS ARE A COLLECTION OF AUTOMATED INSTRUMENTS
THAT ARE MAINTAINED BY A VARIETY OF FEDERAL AND STATE AGENCIES.
CERTAIN ELEMENTS...SUCH AS HUMIDITY VALUES AND SUSTAINED WIND
SPEEDS...MAY BE APPROXIMATED.



USA.gov is the U.S. government's official web portal to all federal, state and local government web resources and services.